Time,TemperatureF,DewpointF,PressureIn,WindDirection,WindDirectionDegrees,WindSpeedMPH,WindSpeedGustMPH,Humidity,HourlyPrecipIn,Conditions,Clouds,dailyrainin,SoftwareType,DateUTC
2013-03-13 00:03:00,34.0,32.0,-100.00,NW,325,2.0,6.0,91,0.00,,,-99.99,,2013-03-13 04:03:00,
2013-03-13 00:13:00,34.0,32.0,-100.00,NNW,330,2.0,8.0,92,0.00,,,-99.99,,2013-03-13 04:13:00,
2013-03-13 00:22:00,34.0,32.0,-100.00,NNW,345,2.0,6.0,92,0.00,,,-99.99,,2013-03-13 04:22:00,
2013-03-13 00:32:00,33.0,31.0,-100.00,North,0,1.0,6.0,92,0.00,,,-99.99,,2013-03-13 04:32:00,
2013-03-13 00:43:00,33.0,31.0,-100.00,North,5,1.0,4.0,92,0.00,,,-99.99,,2013-03-13 04:43:00,
2013-03-13 00:52:00,33.0,31.0,-100.00,NNW,345,1.0,3.0,92,0.00,,,-99.99,,2013-03-13 04:52:00,
2013-03-13 01:02:00,33.0,31.0,-100.00,NNE,30,0.0,3.0,93,0.00,,,-99.99,,2013-03-13 05:02:00,
2013-03-13 01:12:00,32.0,31.0,-100.00,NW,320,1.0,3.0,93,0.00,,,-99.99,,2013-03-13 05:12:00,
2013-03-13 01:22:00,32.0,31.0,-100.00,North,0,2.0,5.0,94,0.00,,,-99.99,,2013-03-13 05:22:00,
2013-03-13 01:32:00,33.0,31.0,-100.00,NNW,335,4.0,6.0,94,0.00,,,-99.99,,2013-03-13 05:32:00,
2013-03-13 01:42:00,33.0,31.0,-100.00,NNE,15,4.0,6.0,94,0.00,,,-99.99,,2013-03-13 05:42:00,
2013-03-13 01:52:00,33.0,31.0,-100.00,North,10,9.0,14.0,94,0.00,,,-99.99,,2013-03-13 05:52:00,
2013-03-13 02:02:00,33.0,31.0,-100.00,NNW,340,2.0,9.0,94,0.55,,,-99.99,,2013-03-13 06:02:00,
2013-03-13 02:12:00,33.0,31.0,-100.00,NNE,20,3.0,6.0,94,0.00,,,-99.99,,2013-03-13 06:12:00,
2013-03-13 02:23:00,33.0,31.0,-100.00,NNE,30,4.0,6.0,95,0.00,,,-99.99,,2013-03-13 06:23:00,
2013-03-13 02:32:00,33.0,31.0,-100.00,North,0,4.0,6.0,95,0.00,,,-99.99,,2013-03-13 06:32:00,
2013-03-13 02:42:00,33.0,31.0,-100.00,North,0,6.0,9.0,95,0.00,,,-99.99,,2013-03-13 06:42:00,
2013-03-13 02:52:00,33.0,31.0,-100.00,NNE,15,4.0,9.0,94,0.00,,,-99.99,,2013-03-13 06:52:00,
2013-03-13 03:03:00,33.0,31.0,-100.00,North,0,6.0,8.0,94,0.00,,,-99.99,,2013-03-13 07:03:00,
2013-03-13 03:12:00,33.0,31.0,-100.00,North,10,6.0,9.0,93,0.00,,,-99.99,,2013-03-13 07:12:00,
2013-03-13 03:22:00,33.0,31.0,-100.00,North,0,4.0,8.0,92,0.00,,,-99.99,,2013-03-13 07:22:00,
2013-03-13 03:33:00,33.0,31.0,-100.00,North,0,4.0,8.0,91,0.00,,,-99.99,,2013-03-13 07:33:00,
2013-03-13 03:42:00,33.0,31.0,-100.00,NNE,15,5.0,7.0,91,0.00,,,-99.99,,2013-03-13 07:42:00,
2013-03-13 03:52:00,33.0,30.0,-100.00,NNE,20,5.0,9.0,90,0.00,,,-99.99,,2013-03-13 07:52:00,
2013-03-13 04:03:00,33.0,29.0,-100.00,NNE,15,7.0,14.0,87,0.00,,,-99.99,,2013-03-13 08:03:00,
2013-03-13 04:12:00,33.0,29.0,-100.00,NNE,15,6.0,12.0,86,0.00,,,-99.99,,2013-03-13 08:12:00,
2013-03-13 04:22:00,32.0,29.0,-100.00,North,10,6.0,11.0,87,0.00,,,-99.99,,2013-03-13 08:22:00,
2013-03-13 04:32:00,32.0,29.0,-100.00,NNE,15,6.0,9.0,88,0.00,,,-99.99,,2013-03-13 08:32:00,
2013-03-13 04:43:00,32.0,29.0,-100.00,NNE,20,6.0,7.0,88,0.00,,,-99.99,,2013-03-13 08:43:00,
2013-03-13 04:53:00,32.0,29.0,-100.00,North,0,6.0,8.0,88,0.00,,,-99.99,,2013-03-13 08:53:00,
2013-03-13 05:02:00,32.0,29.0,-100.00,NNE,20,6.0,10.0,87,0.00,,,-99.99,,2013-03-13 09:02:00,
2013-03-13 05:12:00,32.0,29.0,-100.00,North,0,6.0,9.0,88,0.00,,,-99.99,,2013-03-13 09:12:00,
2013-03-13 05:22:00,32.0,29.0,-100.00,NNE,20,5.0,8.0,87,0.00,,,-99.99,,2013-03-13 09:22:00,
2013-03-13 05:32:00,32.0,29.0,-100.00,North,10,7.0,10.0,87,0.00,,,-99.99,,2013-03-13 09:32:00,
2013-03-13 05:42:00,32.0,28.0,-100.00,North,0,5.0,9.0,87,0.00,,,-99.99,,2013-03-13 09:42:00,
2013-03-13 05:52:00,32.0,29.0,-100.00,North,0,6.0,9.0,87,0.00,,,-99.99,,2013-03-13 09:52:00,
2013-03-13 06:02:00,32.0,29.0,-100.00,North,0,6.0,10.0,87,0.00,,,-99.99,,2013-03-13 10:02:00,
2013-03-13 06:12:00,32.0,29.0,-100.00,North,0,4.0,9.0,87,0.00,,,-99.99,,2013-03-13 10:12:00,
2013-03-13 06:22:00,32.0,28.0,-100.00,North,0,6.0,9.0,87,0.00,,,-99.99,,2013-03-13 10:22:00,
2013-03-13 06:32:00,32.0,28.0,-100.00,North,10,6.0,9.0,87,0.00,,,-99.99,,2013-03-13 10:32:00,
2013-03-13 06:42:00,32.0,28.0,-100.00,North,10,7.0,11.0,87,0.00,,,-99.99,,2013-03-13 10:42:00,
2013-03-13 06:52:00,32.0,28.0,-100.00,NNE,25,6.0,14.0,86,0.00,,,-99.99,,2013-03-13 10:52:00,
2013-03-13 07:02:00,32.0,28.0,-100.00,NNE,25,9.0,14.0,82,0.00,,,-99.99,,2013-03-13 11:02:00,
2013-03-13 07:12:00,32.0,27.0,-100.00,NNE,30,4.0,9.0,80,0.00,,,-99.99,,2013-03-13 11:12:00,
2013-03-13 07:22:00,32.0,26.0,-100.00,North,5,7.0,12.0,79,0.00,,,-99.99,,2013-03-13 11:22:00,
2013-03-13 07:32:00,32.0,26.0,-100.00,ENE,65,6.0,16.0,77,0.00,,,-99.99,,2013-03-13 11:32:00,
2013-03-13 07:42:00,32.0,25.0,-100.00,NE,50,9.0,17.0,75,0.00,,,-99.99,,2013-03-13 11:42:00,
2013-03-13 07:52:00,32.0,25.0,-100.00,NE,50,7.0,19.0,77,0.00,,,-99.99,,2013-03-13 11:52:00,
2013-03-13 08:02:00,31.0,25.0,-100.00,ENE,60,6.0,19.0,78,0.00,,,-99.99,,2013-03-13 12:02:00,
2013-03-13 08:12:00,31.0,25.0,-100.00,East,80,7.0,17.0,78,0.00,,,-99.99,,2013-03-13 12:12:00,
2013-03-13 08:22:00,30.0,22.0,-100.00,East,80,15.0,21.0,73,0.00,,,-99.99,,2013-03-13 12:22:00,
2013-03-13 08:32:00,30.0,22.0,-100.00,ENE,75,9.0,16.0,71,0.00,,,-99.99,,2013-03-13 12:32:00,
2013-03-13 08:42:00,30.0,22.0,-100.00,ENE,65,9.0,15.0,73,0.00,,,-99.99,,2013-03-13 12:42:00,
2013-03-13 08:52:00,30.0,23.0,-100.00,ESE,105,7.0,13.0,75,0.00,,,-99.99,,2013-03-13 12:52:00,
2013-03-13 09:02:00,30.0,23.0,-100.00,East,100,7.0,14.0,74,0.00,,,-99.99,,2013-03-13 13:02:00,
2013-03-13 09:12:00,30.0,22.0,-100.00,East,80,6.0,16.0,72,0.00,,,-99.99,,2013-03-13 13:12:00,
2013-03-13 09:22:00,29.0,20.0,-100.00,East,85,12.0,19.0,67,0.00,,,-99.99,,2013-03-13 13:22:00,
2013-03-13 09:33:00,30.0,19.0,-100.00,East,85,9.0,20.0,65,0.00,,,-99.99,,2013-03-13 13:33:00,
2013-03-13 09:43:00,30.0,19.0,-100.00,ENE,65,7.0,17.0,65,0.00,,,-99.99,,2013-03-13 13:43:00,
2013-03-13 09:52:00,30.0,19.0,-100.00,ENE,60,11.0,15.0,65,0.00,,,-99.99,,2013-03-13 13:52:00,
2013-03-13 10:02:00,29.0,18.0,-100.00,NE,55,11.0,19.0,61,0.00,,,-99.99,,2013-03-13 14:02:00,
2013-03-13 10:12:00,30.0,19.0,-100.00,NE,50,10.0,19.0,62,0.00,,,-99.99,,2013-03-13 14:12:00,
2013-03-13 10:22:00,30.0,19.0,-100.00,ENE,75,15.0,24.0,63,0.00,,,-99.99,,2013-03-13 14:22:00,
2013-03-13 10:33:00,29.0,19.0,-100.00,ENE,75,9.0,24.0,64,0.00,,,-99.99,,2013-03-13 14:33:00,
2013-03-13 10:42:00,30.0,19.0,-100.00,East,80,9.0,18.0,64,0.00,,,-99.99,,2013-03-13 14:42:00,
2013-03-13 10:52:00,29.0,19.0,-100.00,NE,45,10.0,19.0,64,0.00,,,-99.99,,2013-03-13 14:52:00,
2013-03-13 11:03:00,29.0,19.0,-100.00,ENE,60,9.0,16.0,64,0.00,,,-99.99,,2013-03-13 15:03:00,
2013-03-13 11:12:00,30.0,19.0,-100.00,NE,35,8.0,22.0,65,0.00,,,-99.99,,2013-03-13 15:12:00,
2013-03-13 11:22:00,29.0,19.0,-100.00,NE,50,10.0,20.0,65,0.00,,,-99.99,,2013-03-13 15:22:00,
2013-03-13 11:32:00,29.0,19.0,-100.00,East,90,12.0,19.0,64,0.00,,,-99.99,,2013-03-13 15:32:00,
2013-03-13 11:42:00,29.0,19.0,-100.00,ENE,70,11.0,21.0,64,0.00,,,-99.99,,2013-03-13 15:42:00,
2013-03-13 11:52:00,30.0,19.0,-100.00,ENE,75,10.0,19.0,63,0.00,,,-99.99,,2013-03-13 15:52:00,
2013-03-13 12:03:00,30.0,19.0,-100.00,ENE,65,11.0,22.0,63,0.00,,,-99.99,,2013-03-13 16:03:00,
2013-03-13 12:12:00,31.0,18.0,-100.00,NE,45,14.0,23.0,58,0.00,,,-99.99,,2013-03-13 16:12:00,
2013-03-13 12:22:00,31.0,19.0,-100.00,NE,55,9.0,19.0,60,0.00,,,-99.99,,2013-03-13 16:22:00,
2013-03-13 12:32:00,30.0,20.0,-100.00,NE,50,12.0,17.0,65,0.00,,,-99.99,,2013-03-13 16:32:00,
2013-03-13 12:42:00,30.0,20.0,-100.00,NE,55,11.0,22.0,66,0.55,,,-99.99,,2013-03-13 16:42:00,
2013-03-13 12:52:00,29.0,21.0,-100.00,East,80,10.0,16.0,72,1.10,,,-99.99,,2013-03-13 16:52:00,
2013-03-13 13:03:00,29.0,21.0,-100.00,ENE,65,12.0,19.0,71,0.00,,,-99.99,,2013-03-13 17:03:00,
2013-03-13 13:12:00,28.0,21.0,-100.00,East,85,12.0,19.0,75,0.55,,,-99.99,,2013-03-13 17:12:00,
2013-03-13 13:22:00,29.0,22.0,-100.00,ENE,75,9.0,15.0,73,0.00,,,-99.99,,2013-03-13 17:22:00,
2013-03-13 13:33:00,29.0,22.0,-100.00,ENE,65,9.0,23.0,74,0.00,,,-99.99,,2013-03-13 17:33:00,
2013-03-13 13:42:00,30.0,22.0,-100.00,East,85,13.0,21.0,71,0.00,,,-99.99,,2013-03-13 17:42:00,
2013-03-13 13:53:00,30.0,19.0,-100.00,ENE,65,11.0,27.0,63,0.00,,,-99.99,,2013-03-13 17:53:00,
2013-03-13 14:02:00,31.0,20.0,-100.00,NE,35,9.0,19.0,63,0.00,,,-99.99,,2013-03-13 18:02:00,
2013-03-13 14:12:00,31.0,18.0,-100.00,ENE,60,10.0,20.0,57,0.00,,,-99.99,,2013-03-13 18:12:00,
2013-03-13 14:22:00,32.0,18.0,-100.00,NE,50,7.0,21.0,56,0.00,,,-99.99,,2013-03-13 18:22:00,
2013-03-13 14:33:00,34.0,21.0,-100.00,ENE,70,11.0,22.0,59,0.00,,,-99.99,,2013-03-13 18:33:00,
2013-03-13 14:42:00,29.0,22.0,-100.00,ENE,75,17.0,29.0,72,0.00,,,-99.99,,2013-03-13 18:42:00,
2013-03-13 14:52:00,31.0,19.0,-100.00,NE,55,12.0,27.0,62,0.00,,,-99.99,,2013-03-13 18:52:00,
2013-03-13 15:02:00,31.0,18.0,-100.00,East,80,13.0,22.0,57,0.00,,,-99.99,,2013-03-13 19:02:00,
2013-03-13 15:12:00,32.0,19.0,-100.00,NNE,30,12.0,21.0,59,0.00,,,-99.99,,2013-03-13 19:12:00,
2013-03-13 15:22:00,30.0,21.0,-100.00,East,80,12.0,22.0,70,0.55,,,-99.99,,2013-03-13 19:22:00,
2013-03-13 15:32:00,30.0,21.0,-100.00,ENE,75,12.0,17.0,68,0.00,,,-99.99,,2013-03-13 19:32:00,
2013-03-13 15:43:00,32.0,20.0,-100.00,NE,45,9.0,19.0,60,0.00,,,-99.99,,2013-03-13 19:43:00,
2013-03-13 15:52:00,32.0,16.0,-100.00,NE,50,14.0,22.0,51,0.00,,,-99.99,,2013-03-13 19:52:00,
2013-03-13 16:02:00,31.0,20.0,-100.00,NE,50,13.0,22.0,64,0.55,,,-99.99,,2013-03-13 20:02:00,
2013-03-13 16:12:00,30.0,22.0,-100.00,NE,40,8.0,21.0,70,0.00,,,-99.99,,2013-03-13 20:12:00,
2013-03-13 16:22:00,32.0,20.0,-100.00,ENE,60,11.0,19.0,61,0.00,,,-99.99,,2013-03-13 20:22:00,
2013-03-13 16:32:00,32.0,19.0,-100.00,East,80,16.0,22.0,59,0.00,,,-99.99,,2013-03-13 20:32:00,
2013-03-13 16:42:00,31.0,20.0,-100.00,East,80,14.0,22.0,62,0.00,,,-99.99,,2013-03-13 20:42:00,
2013-03-13 16:52:00,31.0,17.0,-100.00,ENE,65,10.0,29.0,56,0.00,,,-99.99,,2013-03-13 20:52:00,
2013-03-13 17:02:00,30.0,18.0,-100.00,NE,50,14.0,26.0,60,0.00,,,-99.99,,2013-03-13 21:02:00,
2013-03-13 17:12:00,30.0,19.0,-100.00,NE,35,10.0,24.0,63,0.55,,,-99.99,,2013-03-13 21:12:00,
2013-03-13 17:22:00,30.0,20.0,-100.00,ENE,60,12.0,18.0,68,0.00,,,-99.99,,2013-03-13 21:22:00,
2013-03-13 17:33:00,30.0,19.0,-100.00,ENE,60,8.0,22.0,64,0.00,,,-99.99,,2013-03-13 21:33:00,
2013-03-13 17:42:00,30.0,21.0,-100.00,NE,45,7.0,19.0,68,0.00,,,-99.99,,2013-03-13 21:42:00,
2013-03-13 17:52:00,30.0,19.0,-100.00,ENE,70,8.0,18.0,64,0.00,,,-99.99,,2013-03-13 21:52:00,
2013-03-13 18:02:00,30.0,18.0,-100.00,ENE,70,12.0,22.0,58,0.00,,,-99.99,,2013-03-13 22:02:00,
2013-03-13 18:12:00,30.0,17.0,-100.00,ENE,70,14.0,20.0,58,0.00,,,-99.99,,2013-03-13 22:12:00,
2013-03-13 18:22:00,30.0,17.0,-100.00,NE,40,10.0,22.0,56,0.00,,,-99.99,,2013-03-13 22:22:00,
2013-03-13 18:32:00,30.0,17.0,-100.00,ENE,60,9.0,22.0,56,0.00,,,-99.99,,2013-03-13 22:32:00,
2013-03-13 18:42:00,30.0,18.0,-100.00,NE,45,8.0,16.0,60,0.00,,,-99.99,,2013-03-13 22:42:00,
2013-03-13 18:52:00,29.0,18.0,-100.00,ENE,65,11.0,24.0,62,0.00,,,-99.99,,2013-03-13 22:52:00,
2013-03-13 19:02:00,29.0,17.0,-100.00,East,90,9.0,19.0,59,0.00,,,-99.99,,2013-03-13 23:02:00,
2013-03-13 19:12:00,29.0,18.0,-100.00,ENE,75,16.0,23.0,63,0.00,,,-99.99,,2013-03-13 23:12:00,
2013-03-13 19:22:00,29.0,17.0,-100.00,NE,45,6.0,17.0,61,0.00,,,-99.99,,2013-03-13 23:22:00,
2013-03-13 19:32:00,29.0,17.0,-100.00,NE,50,8.0,16.0,59,0.00,,,-99.99,,2013-03-13 23:32:00,
2013-03-13 19:42:00,29.0,16.0,-100.00,ENE,65,12.0,24.0,57,0.00,,,-99.99,,2013-03-13 23:42:00,
2013-03-13 19:52:00,29.0,16.0,-100.00,ENE,70,12.0,21.0,57,0.00,,,-99.99,,2013-03-13 23:52:00,
2013-03-13 20:02:00,29.0,16.0,-100.00,ENE,70,12.0,21.0,57,0.00,,,-99.99,,2013-03-14 00:02:00,
2013-03-13 20:13:00,29.0,16.0,-100.00,East,80,14.0,21.0,58,0.00,,,-99.99,,2013-03-14 00:13:00,
2013-03-13 20:22:00,29.0,17.0,-100.00,East,80,10.0,18.0,60,0.00,,,-99.99,,2013-03-14 00:22:00,
2013-03-13 20:32:00,29.0,17.0,-100.00,ENE,70,13.0,22.0,61,0.00,,,-99.99,,2013-03-14 00:32:00,
2013-03-13 20:42:00,29.0,17.0,-100.00,ENE,70,12.0,22.0,62,0.00,,,-99.99,,2013-03-14 00:42:00,
2013-03-13 20:52:00,29.0,17.0,-100.00,ENE,60,7.0,18.0,62,0.00,,,-99.99,,2013-03-14 00:52:00,
2013-03-13 21:02:00,28.0,16.0,-100.00,ENE,75,9.0,24.0,58,0.00,,,-99.99,,2013-03-14 01:02:00,
2013-03-13 21:12:00,28.0,16.0,-100.00,ENE,70,9.0,16.0,59,0.00,,,-99.99,,2013-03-14 01:12:00,
2013-03-13 21:22:00,29.0,16.0,-100.00,NE,55,12.0,17.0,58,0.00,,,-99.99,,2013-03-14 01:22:00,
2013-03-13 21:32:00,28.0,16.0,-100.00,ENE,70,12.0,19.0,59,0.00,,,-99.99,,2013-03-14 01:32:00,
2013-03-13 21:42:00,28.0,17.0,-100.00,ENE,70,9.0,20.0,61,0.00,,,-99.99,,2013-03-14 01:42:00,
2013-03-13 21:52:00,28.0,17.0,-100.00,ENE,60,7.0,15.0,61,0.00,,,-99.99,,2013-03-14 01:52:00,
2013-03-13 22:02:00,28.0,16.0,-100.00,ENE,65,7.0,19.0,60,0.00,,,-99.99,,2013-03-14 02:02:00,
2013-03-13 22:12:00,28.0,16.0,-100.00,ENE,75,11.0,17.0,60,0.00,,,-99.99,,2013-03-14 02:12:00,
2013-03-13 22:22:00,28.0,16.0,-100.00,ENE,70,11.0,22.0,61,0.00,,,-99.99,,2013-03-14 02:22:00,
2013-03-13 22:32:00,28.0,17.0,-100.00,ENE,65,16.0,25.0,61,0.55,,,-99.99,,2013-03-14 02:32:00,
2013-03-13 22:42:00,28.0,17.0,-100.00,ENE,65,16.0,25.0,61,0.55,,,-99.99,,2013-03-14 02:42:00,
2013-03-13 22:51:00,28.0,17.0,-100.00,ENE,65,16.0,25.0,61,0.55,,,-99.99,,2013-03-14 02:51:00,
2013-03-13 23:02:00,28.0,17.0,-100.00,East,80,9.0,17.0,64,0.00,,,-99.99,,2013-03-14 03:02:00,
2013-03-13 23:12:00,28.0,18.0,-100.00,ENE,60,8.0,16.0,65,0.00,,,-99.99,,2013-03-14 03:12:00,
2013-03-13 23:23:00,28.0,17.0,-100.00,East,90,6.0,13.0,65,0.00,,,-99.99,,2013-03-14 03:23:00,
2013-03-13 23:32:00,28.0,17.0,-100.00,ENE,75,9.0,15.0,63,0.00,,,-99.99,,2013-03-14 03:32:00,
2013-03-13 23:42:00,28.0,15.0,-100.00,NE,55,9.0,17.0,58,0.00,,,-99.99,,2013-03-14 03:42:00,
2013-03-13 23:52:00,28.0,15.0,-100.00,East,90,6.0,13.0,58,0.00,,,-99.99,,2013-03-14 03:52:00,